Home > Weather > Nagoya > Past weeks

Flag for Japan Weather for the Past 2 Weeks in Nagoya, Japan

Now
45 °F

Passing clouds.


Feels Like: 36 °F
Forecast: 25 / 47 °F
Wind: 21 mph from Northwest

Location: Nagoya Airport

Current Time: Feb 6, 2016 at 9:18:02 PM

Latest Report: Feb 6, 2016 at 8:30 PM


Visibility: N/A

Pressure: 29.92 "Hg

Humidity: 61%

Dew point: 32 °F

Location of NagoyaLocation

Historic Weather in Nagoya — Graph

°F

Nagoya Temperature Yesterday

Maximum temperature yesterday: 54 °F (at 3:00 PM)
Minimum temperature yesterday: 41 °F (at 1:30 AM)
Average temperature yesterday: 47 °F

High & Low Weather Summary for the Past Weeks

 TemperatureHumidityPressure
High54 °F (Jan 28, 2:30 PM)94% (Jan 29, 9:00 PM)30.39 "Hg (Jan 29, 9:00 PM)
Low27 °F (Jan 25, 4:00 AM)28% (Jan 24, 3:00 PM)29.80 "Hg (Jan 24, 1:30 PM)
Average43 °F60%30.12 "Hg
* Reported Jan 22 8:00 PM — Feb 6 8:00 PM, Nagoya, Weather by CustomWeather, © 2016

Note: Actual official high and low records may vary slightly from our data, if they occured in-between our weather recording intervals... More about our weather records

Advertising

Nagoya Weather History for the Previous 24 Hours

 ConditionsComfort  
Time TempWeatherWind HumidityBarometerVisibility
8:00 PM
Sat, Feb 6
43 °FPassing clouds.21 mph66%29.92 "HgN/A
7:30 PM45 °FPassing clouds.25 mph61%29.89 "HgN/A
7:00 PM45 °FPassing clouds.25 mph66%29.89 "HgN/A
6:30 PM45 °FPassing clouds.25 mph61%29.89 "HgN/A
6:00 PM46 °FPassing clouds.26 mph62%29.89 "HgN/A
5:30 PM46 °FPassing clouds.24 mph57%29.89 "HgN/A
5:00 PM46 °FPartly sunny.21 mph62%29.89 "HgN/A
4:30 PM46 °FPartly sunny.18 mph57%29.89 "HgN/A
4:00 PM48 °FPartly sunny.21 mph54%29.89 "HgN/A
3:30 PM48 °FPartly sunny.18 mph50%29.89 "HgN/A
3:00 PM48 °FPartly sunny.16 mph50%29.89 "HgN/A
2:30 PM48 °FPartly sunny.16 mph46%29.89 "HgN/A
1:30 PM46 °FPartly sunny.15 mph53%29.92 "HgN/A
1:00 PM46 °FBroken clouds.16 mph57%29.92 "HgN/A
12:30 PM46 °FPartly sunny.18 mph57%29.92 "HgN/A
12:00 PM46 °FMore clouds than sun.20 mph57%29.95 "HgN/A
11:00 AM46 °FPartly sunny.18 mph57%29.95 "HgN/A
10:30 AM46 °FPartly sunny.17 mph62%29.98 "HgN/A
9:30 AM45 °FPartly sunny.20 mph66%29.98 "HgN/A
9:00 AM45 °FPartly sunny.20 mph66%29.98 "HgN/A
8:30 AM43 °FPartly sunny.16 mph71%29.98 "HgN/A
8:00 AM43 °FPartly sunny.17 mph71%29.98 "HgN/A
7:30 AM45 °FPartly sunny.17 mph71%29.98 "HgN/A
7:00 AM45 °FPartly sunny.15 mph71%29.95 "HgN/A
6:30 AM43 °FPassing clouds.14 mph71%29.95 "HgN/A
6:00 AM43 °FClear.12 mph71%29.95 "Hg10 mi
5:30 AM43 °FClear.12 mph76%29.95 "Hg10 mi
5:00 AM45 °FClear.10 mph71%29.95 "Hg10 mi
4:30 AM45 °FClear.13 mph66%29.95 "Hg10 mi
4:00 AM45 °FClear.16 mph71%29.95 "Hg10 mi
3:30 AM45 °FClear.14 mph71%29.95 "Hg10 mi
3:00 AM45 °FClear.14 mph71%29.95 "Hg10 mi
2:30 AM45 °FClear.15 mph66%29.98 "Hg10 mi
2:00 AM45 °FClear.14 mph66%29.98 "Hg10 mi
1:30 AM45 °FClear.13 mph66%29.98 "Hg10 mi
1:00 AM45 °FClear.10 mph66%29.98 "Hg10 mi
12:30 AM46 °FClear.12 mph62%29.98 "Hg10 mi
12:00 AM46 °FClear.9 mph53%29.98 "Hg10 mi
11:30 PM
Fri, Feb 5
46 °FClear.12 mph62%29.98 "Hg10 mi
11:00 PM46 °FClear.10 mph62%30.01 "Hg10 mi
10:30 PM46 °FClear.10 mph53%30.01 "Hg10 mi
10:00 PM46 °FClear.12 mph57%30.01 "Hg10 mi
9:30 PM46 °FClear.10 mph53%30.01 "Hg10 mi
9:00 PM46 °FClear.10 mph50%30.01 "Hg10 mi
Weather by CustomWeather, © 2016

See weather overviewHow to use our weather pages